Location: Unspecified
(50.1700°N, 6.8600°E)
Time: 14:13:14
(UTC+00:00)

Cosmos 1766 Rocket - Pass Details

Date: 24 January 2019
Orbit: 605 x 633 km, 82.5° (Epoch: 19 April)

Event Time Altitude Azimuth Distance (km) Brightness Sun altitude
Rises 06:00:46 0° 346° (NNW) 2,943 6.7 -12.2°
Reaches altitude 10° 06:03:03 10° 341° (NNW) 2,029 5.9 -11.8°
Maximum altitude 06:07:25 53° 266° (W) 783 3.7 -11.1°
Drops below altitude 10° 06:11:45 10° 190° (S) 2,004 6.3 -10.5°
Sets 06:14:00 0° 185° (S) 2,902 7.2 -10.1°
